Regional Weather Roundup
Issued by NWS

Home | Current Version | Previous Version | Text Only | Print | Product List | Glossary Off
Versions: 1 2 3 4 5 6 7 8 9 10 11 12 13 14 15 16 17 18 19 20 21 22 23 24 25 26 27 28 29 30 31 32 33 34 35 36 37 38 39 40 41 42 43 44 45 46 47 48 49 50

964
ASUS44 KJAN 240610
RWRMS

MISSISSIPPI HOURLY WEATHER ROUNDUP
NATIONAL WEATHER SERVICE JACKSON MS
100 AM CDT THU JUL 24 2014

NOTE: "FAIR: INDICATES FEW OR NO CLOUDS BELOW 12,000 FEET WITH NO
SIGNIFICANT WEATHER AND/OR OBSTRUCTIONS TO VISIBILITY.

MSZ001>002-007>008-010>013-018>021-025>028-034>036-240700-
NORTHWEST MISSISSIPPI

CITY           SKY/WX    TMP DP  RH WIND       PRES   REMARKS
CLARKSDALE     FAIR      72  72 100 NE6       30.02F
CLEVELAND      FAIR      71  71  99 N7        30.00F
GREENWOOD      PTCLDY    70  68  93 N5        30.00S
6HR MIN TEMP:  70; 6HR MAX TEMP:  81; 6HR PCP:  0.21;

GREENVILLE     CLOUDY    74  72  93 NE5       29.99F
6HR MIN TEMP:  73; 6HR MAX TEMP:  83; 6HR PCP:  0.05;

GRENADA        FAIR      72  70  94 CALM      29.99F
OLIVE BRANCH   CLEAR     70 N/A N/A CALM      30.02F
OXFORD         FAIR      68  68 100 N3        30.03F
TUNICA         CLEAR     70  66  88 CALM      30.02S
$$

MSZ003>006-009-014>017-022>024-029>033-037>039-240700-
NORTHEAST MISSISSIPPI

CITY           SKY/WX    TMP DP  RH WIND       PRES   REMARKS
BELMONT        CLOUDY    71  70  98 CALM      30.01S
COLUMBUS AFB   MOCLDY    71  71  99 CALM      30.00F
6HR MIN TEMP:  71; 6HR MAX TEMP:  77; 6HR PCP: TRACE;

CORINTH        FAIR      72  68  88 N3        30.01F
GOLDN TRIANGLE MOCLDY    72  68  88 CALM      30.00F
STARKVILLE     FAIR      72  70  94 CALM      30.00F
TUPELO         PTCLDY    75  70  84 CALM      30.00F
6HR MIN TEMP:  74; 6HR MAX TEMP:  79;

$$

MSZ040-058-240700-
CENTRAL MISSISSIPPI

CITY           SKY/WX    TMP DP  RH WIND       PRES   REMARKS
JACKSON INTL   PTCLDY    73  71  93 SE5       29.98F
6HR MIN TEMP:  73; 6HR MAX TEMP:  81;

JACKSON HAWKNS PTCLDY    73  69  87 CALM      29.98F
6HR MIN TEMP:  72; 6HR MAX TEMP:  78; 6HR PCP:  0.01;

MERIDIAN KEY   PTCLDY    73  71  93 CALM      30.00F
6HR MIN TEMP:  73; 6HR MAX TEMP:  84; 6HR PCP:  0.01;

MERIDIAN NAS   CLEAR     72  69  90 CALM      30.00F
6HR MIN TEMP:  72; 6HR MAX TEMP:  86;

RAYMOND        FAIR      72  66  83 CALM      29.98F
VICKSBURG      CLEAR     72  70  93 E3        29.96F
6HR MIN TEMP:  72; 6HR MAX TEMP:  88;

$$

MSZ059>079-240700-
SOUTH MISSISSIPPI

CITY           SKY/WX    TMP DP  RH WIND       PRES   REMARKS
BROOKHAVEN     FAIR      73  72  94 CALM      30.00F
COLUMBIA       FAIR      73  73 100 CALM      29.98S FOG
HATTIESBURG    CLEAR     75  72  90 S5        29.99F
6HR MIN TEMP:  75; 6HR MAX TEMP:  83;

MCCOMB         CLEAR     75  72  90 CALM      29.99F
6HR MIN TEMP:  74; 6HR MAX TEMP:  84;

NATCHEZ        CLEAR     72  70  94 SE6       29.97F
6HR MIN TEMP:  72; 6HR MAX TEMP:  84;

PINE BELT      CLEAR     73  72  94 CALM      30.00S
6HR MIN TEMP:  73; 6HR MAX TEMP:  82;

$$

MSZ080>082-240700-
COASTAL MISSISSIPPI

CITY           SKY/WX    TMP DP  RH WIND       PRES   REMARKS
BILOXI         CLEAR     78  72  83 S6        29.99F
6HR MIN TEMP:  76; 6HR MAX TEMP:  81;

PASCAGOULA     CLEAR     71  70  96 CALM      29.99F
6HR MIN TEMP:  71; 6HR MAX TEMP:  81;

GULFPORT       CLEAR     78  72  81 S5        29.98F
6HR MIN TEMP:  77; 6HR MAX TEMP:  85;

$$



USA.gov is the U.S. government's official web portal to all federal, state and local government web resources and services.